Bad Axe, MI

5:40 PM EDT on September 25, 2017 (GMT -0400)
Huron County Memorial

Weather History for KBAX - September, 2013

Change the Weather History Date:

Thursday, September 19, 2013

  Actual Average (KP58) Record (KP58)
Temperature  
Mean Temperature 70 °F -  
Max Temperature 81 °F 69 °F 90 °F (2002)
Min Temperature 59 °F 52 °F 37 °F (2014)
Cooling Degree Days 5    
Growing Degree Days 20 (Base 50)    
Moisture  
Dew Point 62 °F    
Average Humidity 78    
Maximum Humidity 95    
Minimum Humidity 59    
Precipitation  
Precipitation 0.00 in - - ()
Sea Level Pressure  
Sea Level Pressure 29.99 in    
Wind  
Wind Speed 7 mph (South)    
Max Wind Speed 13 mph    
Max Gust Speed 17 mph    
Visibility 9 miles    
Events      
Averages and records for this station are not official NWS values.
T = Trace of Precipitation, MM = Missing Value Source: NWS Daily Summary

Daily Weather History Graph

Daily Weather History Graph

Search for Another Location

Airport or City:

Trip Planner

Search our weather history database for the weather conditions in past years. The results will help you decide how hot, cold, wet, or windy it might be!

Date:

Astronomy

Sep. 19, 2013 Rise Set
Actual Time 7:16 AM EDT 7:34 PM EDT
Civil Twilight 6:47 AM EDT 8:03 PM EDT
Nautical Twilight 6:13 AM EDT 8:36 PM EDT
Astronomical Twilight 5:38 AM EDT 9:11 PM EDT
Moon 7:29 PM EDT (9/19) 7:25 AM EDT (9/19)
Length of Visible Light 13h 15m
Length of Day
12h 18m
Full, 100% of the Moon is Illuminated
Sep 19
Full
Sep 26
Last Quarter
Oct 4
New
Oct 11
First Quarter
Oct 18
Full

Hourly Weather History & Observations

Time (EDT) Temp. Heat Index Dew Point Humidity Pressure Visibility Wind Dir Wind Speed Gust Speed Precip Events Conditions
12:14 AM 61.2 °F - 54.0 °F 77% 30.05 in 10.0 mi South 8.1 mph - N/A   Clear
12:35 AM 61.0 °F - 54.3 °F 79% 30.05 in 10.0 mi South 8.1 mph - N/A   Clear
12:54 AM 60.8 °F - 54.5 °F 80% 30.05 in 10.0 mi South 6.9 mph - N/A   Scattered Clouds
1:14 AM 60.3 °F - 54.7 °F 82% 30.05 in 10.0 mi South 4.6 mph - N/A   Clear
1:35 AM 59.0 °F - 54.7 °F 86% 30.05 in 10.0 mi SSE 5.8 mph - N/A   Clear
1:54 AM 59.9 °F - 55.8 °F 86% 30.05 in 10.0 mi SSE 4.6 mph - N/A   Clear
2:14 AM 60.3 °F - 56.3 °F 87% 30.05 in 10.0 mi SSE 5.8 mph - N/A   Mostly Cloudy
2:35 AM 61.2 °F - 57.4 °F 87% 30.05 in 10.0 mi South 6.9 mph - N/A   Mostly Cloudy
2:54 AM 61.0 °F - 57.4 °F 88% 30.04 in 10.0 mi South 5.8 mph - N/A   Scattered Clouds
3:14 AM 60.3 °F - 57.2 °F 90% 30.04 in 10.0 mi South 5.8 mph - N/A   Clear
3:35 AM 60.4 °F - 57.6 °F 90% 30.03 in 10.0 mi SSE 4.6 mph - N/A   Clear
3:54 AM 60.3 °F - 57.4 °F 90% 30.03 in 10.0 mi South 5.8 mph - N/A   Scattered Clouds
4:14 AM 60.8 °F - 58.1 °F 91% 30.02 in 10.0 mi South 4.6 mph - N/A   Scattered Clouds
4:34 AM 60.3 °F - 58.1 °F 93% 30.02 in 7.0 mi South 3.5 mph - N/A   Clear
4:54 AM 60.1 °F - 57.9 °F 93% 30.01 in 7.0 mi South 4.6 mph - N/A   Clear
5:15 AM 59.9 °F - 58.1 °F 94% 30.01 in 7.0 mi SSE 3.5 mph - N/A   Clear
5:34 AM 59.9 °F - 58.1 °F 94% 30.00 in 7.0 mi South 4.6 mph - N/A   Clear
5:54 AM 59.4 °F - 57.9 °F 95% 30.00 in 7.0 mi SSE 3.5 mph - N/A   Clear
6:15 AM 59.9 °F - 58.3 °F 94% 30.00 in 7.0 mi SSE 4.6 mph - N/A   Scattered Clouds
6:34 AM 60.3 °F - 58.3 °F 93% 30.00 in 7.0 mi SSE 5.8 mph - N/A   Overcast
6:54 AM 60.1 °F - 58.1 °F 93% 30.01 in 7.0 mi Calm Calm - N/A   Scattered Clouds
7:15 AM 60.1 °F - 58.1 °F 93% 30.01 in 7.0 mi North - - N/A   Clear
7:34 AM 60.8 °F - 58.1 °F 91% 30.02 in 5.0 mi SSE 4.6 mph - N/A   Clear
7:55 AM 61.7 °F - 59.0 °F 91% 30.02 in 5.0 mi Calm Calm - N/A   Clear
8:15 AM 64.2 °F - 59.5 °F 85% 30.03 in 10.0 mi South 3.5 mph - N/A   Clear
8:34 AM 65.7 °F - 59.5 °F 81% 30.03 in 10.0 mi SSW 8.1 mph - N/A   Clear
8:55 AM 65.8 °F - 59.2 °F 79% 30.03 in 10.0 mi South 8.1 mph - N/A   Mostly Cloudy
9:15 AM 66.2 °F - 59.0 °F 78% 30.03 in 10.0 mi SSW 6.9 mph - N/A   Overcast
9:34 AM 67.1 °F - 59.9 °F 78% 30.04 in 10.0 mi SW 6.9 mph - N/A   Scattered Clouds
9:55 AM 69.1 °F - 60.8 °F 75% 30.03 in 10.0 mi SW 5.8 mph - N/A   Scattered Clouds
10:15 AM 70.0 °F - 61.5 °F 74% 30.03 in 10.0 mi SW 4.6 mph - N/A   Scattered Clouds
10:34 AM 70.3 °F - 61.7 °F 74% 30.02 in 10.0 mi SW 4.6 mph - N/A   Mostly Cloudy
10:55 AM 71.2 °F - 62.8 °F 75% 30.00 in 10.0 mi SSW 5.8 mph - N/A   Mostly Cloudy
11:15 AM 70.9 °F - 62.6 °F 75% 30.00 in 10.0 mi South 8.1 mph - N/A   Clear
11:34 AM 72.0 °F - 63.5 °F 75% 29.99 in 10.0 mi South 10.4 mph - N/A   Clear
11:55 AM 72.5 °F - 63.9 °F 74% 30.00 in 10.0 mi South 5.8 mph - N/A   Clear
12:15 PM 75.6 °F - 64.6 °F 69% 30.00 in 10.0 mi South 5.8 mph - N/A   Clear
12:35 PM 76.3 °F - 63.9 °F 65% 30.00 in 10.0 mi South 6.9 mph - N/A   Clear
12:55 PM 77.2 °F - 65.1 °F 66% 30.00 in 10.0 mi South 6.9 mph - N/A   Clear
1:15 PM 79.2 °F - 64.6 °F 61% 29.99 in 10.0 mi South 9.2 mph 17.3 mph N/A   Clear
1:35 PM 80.6 °F 82.4 °F 64.9 °F 59% 29.99 in 10.0 mi SSW 8.1 mph - N/A   Clear
1:55 PM 79.3 °F - 65.1 °F 62% 29.98 in 10.0 mi South 9.2 mph - N/A   Mostly Cloudy
2:14 PM 80.6 °F 82.5 °F 65.5 °F 60% 29.98 in 10.0 mi SSW 10.4 mph - N/A   Mostly Cloudy
2:35 PM 81.0 °F 82.9 °F 65.5 °F 59% 29.97 in 10.0 mi South 11.5 mph - N/A   Scattered Clouds
2:55 PM 81.0 °F 83.0 °F 65.7 °F 60% 29.96 in 10.0 mi South 11.5 mph - N/A   Mostly Cloudy
3:14 PM 80.6 °F 82.5 °F 65.5 °F 60% 29.96 in 10.0 mi SSW 12.7 mph - N/A   Scattered Clouds
3:35 PM 80.8 °F 82.8 °F 65.7 °F 60% 29.95 in 10.0 mi SSW 8.1 mph - N/A   Mostly Cloudy
3:55 PM 79.7 °F - 65.5 °F 62% 29.95 in 10.0 mi SSW 10.4 mph - N/A   Mostly Cloudy
4:14 PM 79.0 °F - 65.3 °F 63% 29.95 in 10.0 mi SSW 12.7 mph - N/A   Scattered Clouds
4:35 PM 79.9 °F - 65.5 °F 61% 29.95 in 10.0 mi SSW 12.7 mph - N/A   Clear
4:55 PM 80.2 °F 82.2 °F 65.5 °F 61% 29.95 in 10.0 mi South 11.5 mph - N/A   Scattered Clouds
5:15 PM 80.1 °F 81.9 °F 65.1 °F 60% 29.94 in 10.0 mi South 12.7 mph - N/A   Clear
5:35 PM 78.8 °F - 65.3 °F 63% 29.95 in 10.0 mi South 9.2 mph - N/A   Clear
5:55 PM 78.8 °F - 65.5 °F 64% 29.94 in 10.0 mi South 11.5 mph - N/A   Scattered Clouds
6:15 PM 77.0 °F - 65.3 °F 67% 29.94 in 10.0 mi SSW 6.9 mph - N/A   Mostly Cloudy
6:35 PM 77.7 °F - 65.5 °F 66% 29.94 in 10.0 mi South 9.2 mph - N/A   Mostly Cloudy
6:55 PM 76.6 °F - 65.1 °F 67% 29.92 in 10.0 mi South 9.2 mph - N/A   Mostly Cloudy
7:15 PM 75.2 °F - 64.8 °F 70% 29.92 in 10.0 mi South 8.1 mph - N/A   Scattered Clouds
7:35 PM 72.9 °F - 64.8 °F 76% 29.92 in 10.0 mi South 6.9 mph - N/A   Clear
7:55 PM 72.0 °F - 65.1 °F 79% 29.92 in 10.0 mi SSE 6.9 mph - N/A   Clear
8:15 PM 71.4 °F - 65.3 °F 81% 29.92 in 10.0 mi South 6.9 mph - N/A   Clear
8:35 PM 70.7 °F - 65.7 °F 84% 29.92 in 7.0 mi South 9.2 mph - N/A   Clear
8:55 PM 70.9 °F - 65.7 °F 83% 29.92 in 5.0 mi SSE 11.5 mph - N/A   Haze
9:15 PM 70.0 °F - 65.5 °F 86% 29.92 in 7.0 mi South 12.7 mph - N/A   Clear
9:35 PM 69.8 °F - 65.5 °F 86% 29.93 in 7.0 mi South 9.2 mph - N/A   Clear
9:55 PM 69.1 °F - 65.3 °F 88% 29.93 in 5.0 mi South 10.4 mph - N/A   Clear
10:15 PM 69.1 °F - 65.5 °F 88% 29.92 in 5.0 mi South 10.4 mph - N/A   Clear
10:35 PM 68.9 °F - 65.5 °F 89% 29.93 in 5.0 mi South 9.2 mph - N/A   Clear
10:55 PM 68.7 °F - 65.5 °F 89% 29.93 in 5.0 mi South 10.4 mph - N/A   Clear
11:15 PM 68.5 °F - 65.5 °F 90% 29.92 in 5.0 mi SSE 11.5 mph - N/A   Scattered Clouds
11:35 PM 68.4 °F - 65.5 °F 90% 29.92 in 4.0 mi South 10.4 mph - N/A   Scattered Clouds
11:54 PM 68.5 °F - 65.8 °F 91% 29.91 in 4.0 mi South 11.5 mph 17.3 mph N/A   Clear